Nissos Mykonos — SYJZ — position and weather

sailwx.info

Track history (hours):
 
Tides and Currents Weather Stations Pressure Air Temp Water Temp Dewpoint Dewpoint Depression Visibility Wind Speed Wind Dir Waves Ship Positions

Nissos Mykonos

Last reported at 2014-Oct-22 20:33 UTC. Time now 2014-Oct-22 23:10 UTC.
Position N 40°17' E 024°43'.

Length 141 m; draft 5.2 m.

Type: Passenger vessel. MMSI: 240389000.

Date/timePositionNaut miles runAvg speedWind from/ knotsBaromVisibWave heightAir tempDewpointWater temp
2014-Oct-22 20:33N 40°17' E 024°43'2121.4
2014-Oct-22 19:33N 40°36' E 024°30'2020.1
2014-Oct-22 18:33N 40°56' E 024°24'0 0.3
2014-Oct-22 17:33N 40°56' E 024°25'0 0.0
2014-Oct-22 16:33N 40°56' E 024°25'0 0.0
2014-Oct-22 15:33N 40°56' E 024°25'1414.5
2014-Oct-22 14:33N 40°42' E 024°28'2120.8
2014-Oct-22 13:33N 40°22' E 024°39'2520.9
2014-Oct-22 12:21N 40°01' E 024°55'150 8.8
2014-Oct-21 19:14N 37°33' E 025°32'1217.3
2014-Oct-21 18:33N 37°28' E 025°19'1615.5
2014-Oct-21 17:34N 37°26' E 024°59'8 8.5
2014-Oct-21 16:34N 37°32' E 024°51'2221.5
2014-Oct-21 15:31N 37°31' E 024°22'2721.3
2014-Oct-21 14:15N 37°38' E 023°49'1420.6
2014-Oct-21 13:34N 37°49' E 023°38'8 8.0
2014-Oct-21 12:33N 37°57' E 023°38'0 0.0
2014-Oct-21 11:33N 37°57' E 023°38'0 0.0
2014-Oct-21 10:33N 37°57' E 023°38'0 0.0
2014-Oct-21 09:33N 37°57' E 023°38'0 0.0
2014-Oct-21 08:33N 37°57' E 023°38'1 0.6
2014-Oct-21 07:33N 37°56' E 023°38'1212.5
2014-Oct-21 06:33N 37°44' E 023°37'13 5.4
2014-Oct-21 04:12N 37°57' E 023°38'0 0.0
2014-Oct-21 03:34N 37°57' E 023°38'0 0.0
2014-Oct-21 02:33N 37°57' E 023°38'0 0.0
2014-Oct-21 01:33N 37°57' E 023°38'0 0.0
2014-Oct-21 00:34N 37°57' E 023°38'0 0.0
2014-Oct-20 23:34N 37°57' E 023°38'0 0.0
2014-Oct-20 22:34N 37°57' E 023°38'0 0.0
2014-Oct-20 21:33N 37°57' E 023°38'0 0.0
2014-Oct-20 20:33N 37°57' E 023°38'0 0.0
2014-Oct-20 19:33N 37°57' E 023°38'0 0.0
2014-Oct-20 18:33N 37°57' E 023°38'0 0.0
2014-Oct-20 17:33N 37°57' E 023°38'0 0.0
2014-Oct-20 16:34N 37°57' E 023°38'0 0.0
2014-Oct-20 15:33N 37°57' E 023°38'0 0.0
2014-Oct-20 14:33N 37°57' E 023°38'0 0.0
2014-Oct-20 13:34N 37°57' E 023°38'0 0.0
2014-Oct-20 12:33N 37°57' E 023°38'0 0.0
2014-Oct-20 11:33N 37°57' E 023°38'0 0.0
2014-Oct-20 10:34N 37°57' E 023°38'0 0.0
2014-Oct-20 09:33N 37°57' E 023°38'0 0.0
2014-Oct-20 08:33N 37°57' E 023°38'0 0.0
2014-Oct-20 07:34N 37°57' E 023°38'0 0.0
2014-Oct-20 06:33N 37°57' E 023°38'0 0.0
2014-Oct-20 05:34N 37°57' E 023°38'0 0.0
2014-Oct-20 04:34N 37°57' E 023°38'0 0.0
2014-Oct-20 03:34N 37°57' E 023°38'0 0.0
2014-Oct-20 02:34N 37°57' E 023°38'0 0.0
2014-Oct-20 01:34N 37°57' E 023°38'0 0.0
2014-Oct-20 00:34N 37°57' E 023°38'0 0.0
2014-Oct-19 23:34N 37°57' E 023°38'0 0.0
2014-Oct-19 22:33N 37°57' E 023°38'0 0.0
2014-Oct-19 21:34N 37°57' E 023°38'2 2.0
2014-Oct-19 20:33N 37°55' E 023°38'6019.1
2014-Oct-19 17:24N 37°32' E 024°48'1011.2
2014-Oct-19 16:32N 37°27' E 024°59'1616.9
2014-Oct-19 15:33N 37°28' E 025°19'173 9.1
2014-Oct-18 20:31N 40°19' E 024°43'2121.4
2014-Oct-18 19:33N 40°37' E 024°30'2019.6
2014-Oct-18 18:33N 40°56' E 024°24'0 0.1
2014-Oct-18 17:33N 40°56' E 024°25'0 0.0
2014-Oct-18 16:33N 40°56' E 024°25'0 0.0
2014-Oct-18 15:33N 40°56' E 024°25'1111.4
2014-Oct-18 14:33N 40°45' E 024°27'2721.2
2014-Oct-18 13:18N 40°20' E 024°41'172 9.6
2014-Oct-17 19:21N 37°34' E 025°36'1518.2
2014-Oct-17 18:33N 37°28' E 025°19'1616.2
2014-Oct-17 17:33N 37°26' E 024°59'10 9.6
2014-Oct-17 16:33N 37°32' E 024°49'3021.0
2014-Oct-17 15:08N 37°32' E 024°11'1821.2
2014-Oct-17 14:17N 37°38' E 023°50'1419.8
2014-Oct-17 13:34N 37°48' E 023°38'8 8.2
2014-Oct-17 12:33N 37°57' E 023°38'0 0.0
2014-Oct-17 11:33N 37°57' E 023°38'0 0.0
2014-Oct-17 10:33N 37°57' E 023°38'0 0.0
2014-Oct-17 09:33N 37°57' E 023°38'0 0.0
2014-Oct-17 08:33N 37°57' E 023°38'0 0.0
2014-Oct-17 07:33N 37°57' E 023°38'0 0.0
2014-Oct-17 06:33N 37°57' E 023°38'0 0.0
2014-Oct-17 05:33N 37°57' E 023°38'0 0.0
2014-Oct-17 04:33N 37°57' E 023°38'0 0.0
2014-Oct-17 03:33N 37°57' E 023°38'0 0.0
2014-Oct-17 02:33N 37°57' E 023°38'0 0.0
2014-Oct-17 01:11N 37°57' E 023°38'0 0.0
2014-Oct-17 00:33N 37°57' E 023°38'0 0.0
2014-Oct-16 23:05N 37°57' E 023°38'0 0.0
2014-Oct-16 22:33N 37°57' E 023°38'0 0.0
2014-Oct-16 21:33N 37°57' E 023°38'0 0.0
2014-Oct-16 20:33N 37°57' E 023°38'1312.8
2014-Oct-16 19:33N 37°45' E 023°44'2221.0
2014-Oct-16 18:31N 37°33' E 024°08'2021.1
2014-Oct-16 17:33N 37°31' E 024°33'1918.8
2014-Oct-16 16:32N 37°26' E 024°57'1515.1
2014-Oct-16 15:34N 37°28' E 025°15'1110.6
2014-Oct-16 14:34N 37°32' E 025°27'2120.5
2014-Oct-16 13:31N 37°37' E 025°53'1613.5
2014-Oct-16 12:22N 37°39' E 026°13'1921.3
2014-Oct-16 11:29N 37°47' E 026°34'17611.8
2014-Oct-15 20:33N 40°19' E 024°42'2221.4
2014-Oct-15 19:32N 40°39' E 024°29'1717.8
2014-Oct-15 18:34N 40°56' E 024°25'0 0.0
2014-Oct-15 17:33N 40°56' E 024°25'0 0.0
2014-Oct-15 16:33N 40°56' E 024°25'0 0.0
2014-Oct-15 15:34N 40°56' E 024°25'1817.9
2014-Oct-15 14:33N 40°38' E 024°29'5817.4
2014-Oct-15 11:13N 39°47' E 025°05'135 8.6
2014-Oct-14 19:23N 37°34' E 025°35'1417.3
2014-Oct-14 18:33N 37°28' E 025°19'1615.9
2014-Oct-14 17:33N 37°26' E 024°59'9 9.3
2014-Oct-14 16:33N 37°32' E 024°50'2221.3
2014-Oct-14 15:32N 37°31' E 024°22'2721.4
2014-Oct-14 14:16N 37°38' E 023°49'1420.1
2014-Oct-14 13:33N 37°49' E 023°37'8 7.5
2014-Oct-14 12:33N 37°57' E 023°38'0 0.0
2014-Oct-14 11:33N 37°57' E 023°38'0 0.0
2014-Oct-14 10:34N 37°57' E 023°38'0 0.0
2014-Oct-14 09:34N 37°57' E 023°38'0 0.0
2014-Oct-14 08:33N 37°57' E 023°38'0 0.0
2014-Oct-14 07:33N 37°57' E 023°38'0 0.0
2014-Oct-14 06:25N 37°57' E 023°38'0 0.0
2014-Oct-14 05:33N 37°57' E 023°38'0 0.0
2014-Oct-14 04:33N 37°57' E 023°38'0 0.0
2014-Oct-14 03:33N 37°57' E 023°38'0 0.0
2014-Oct-14 02:33N 37°57' E 023°38'0 0.0
2014-Oct-14 01:22N 37°57' E 023°38'0 0.0
2014-Oct-14 00:24N 37°57' E 023°38'0 0.0
2014-Oct-13 23:33N 37°57' E 023°38'0 0.0
2014-Oct-13 22:31N 37°57' E 023°38'0 0.0
2014-Oct-13 21:33N 37°57' E 023°38'0 0.0
2014-Oct-13 20:33N 37°57' E 023°38'0 0.0
2014-Oct-13 19:33N 37°57' E 023°38'0 0.0
2014-Oct-13 18:33N 37°57' E 023°38'0 0.0
2014-Oct-13 17:33N 37°57' E 023°38'0 0.0
2014-Oct-13 16:33N 37°57' E 023°38'0 0.0
2014-Oct-13 15:33N 37°57' E 023°38'0 0.0
2014-Oct-13 14:33N 37°57' E 023°38'0 0.0
2014-Oct-13 13:33N 37°57' E 023°38'0 0.0
2014-Oct-13 12:34N 37°57' E 023°38'0 0.0
2014-Oct-13 11:31N 37°57' E 023°38'0 0.0
2014-Oct-13 10:33N 37°57' E 023°38'0 0.0
2014-Oct-13 09:33N 37°57' E 023°38'0 0.0
2014-Oct-13 08:33N 37°57' E 023°38'0 0.0
2014-Oct-13 07:33N 37°57' E 023°38'0 0.0
2014-Oct-13 06:34N 37°57' E 023°38'0 0.0
2014-Oct-13 05:33N 37°57' E 023°38'0 0.0
2014-Oct-13 04:33N 37°57' E 023°38'0 0.0
2014-Oct-13 03:33N 37°57' E 023°38'0 0.0
2014-Oct-13 02:33N 37°57' E 023°38'0 0.0
2014-Oct-13 01:33N 37°57' E 023°38'0 0.0
2014-Oct-13 00:33N 37°57' E 023°38'0 0.0
2014-Oct-12 23:33N 37°57' E 023°38'0 0.0
2014-Oct-12 22:33N 37°57' E 023°38'0 0.0
2014-Oct-12 21:33N 37°57' E 023°38'0 0.0
2014-Oct-12 20:33N 37°57' E 023°38'  
Track history (hours):
 
Tides and Currents Weather Stations Pressure Air Temp Water Temp Dewpoint Dewpoint Depression Visibility Wind Speed Wind Dir Waves Ship Positions

Nissos Mykonos

Last reported at 2014-Oct-22 20:33 UTC. Time now 2014-Oct-22 23:10 UTC.
Position N 40°17' E 024°43'.

Length 141 m; draft 5.2 m.

Type: Passenger vessel. MMSI: 240389000.

Date/timePositionNaut miles runAvg speedWind from/ knotsBaromVisibWave heightAir tempDewpointWater temp
2014-Oct-22 20:33N 40°17' E 024°43'2121.4
2014-Oct-22 19:33N 40°36' E 024°30'2020.1
2014-Oct-22 18:33N 40°56' E 024°24'0 0.3
2014-Oct-22 17:33N 40°56' E 024°25'0 0.0
2014-Oct-22 16:33N 40°56' E 024°25'0 0.0
2014-Oct-22 15:33N 40°56' E 024°25'1414.5
2014-Oct-22 14:33N 40°42' E 024°28'2120.8
2014-Oct-22 13:33N 40°22' E 024°39'2520.9
2014-Oct-22 12:21N 40°01' E 024°55'150 8.8
2014-Oct-21 19:14N 37°33' E 025°32'1217.3
2014-Oct-21 18:33N 37°28' E 025°19'1615.5
2014-Oct-21 17:34N 37°26' E 024°59'8 8.5
2014-Oct-21 16:34N 37°32' E 024°51'2221.5
2014-Oct-21 15:31N 37°31' E 024°22'2721.3
2014-Oct-21 14:15N 37°38' E 023°49'1420.6
2014-Oct-21 13:34N 37°49' E 023°38'8 8.0
2014-Oct-21 12:33N 37°57' E 023°38'0 0.0
2014-Oct-21 11:33N 37°57' E 023°38'0 0.0
2014-Oct-21 10:33N 37°57' E 023°38'0 0.0
2014-Oct-21 09:33N 37°57' E 023°38'0 0.0
2014-Oct-21 08:33N 37°57' E 023°38'1 0.6
2014-Oct-21 07:33N 37°56' E 023°38'1212.5
2014-Oct-21 06:33N 37°44' E 023°37'13 5.4
2014-Oct-21 04:12N 37°57' E 023°38'0 0.0
2014-Oct-21 03:34N 37°57' E 023°38'0 0.0
2014-Oct-21 02:33N 37°57' E 023°38'0 0.0
2014-Oct-21 01:33N 37°57' E 023°38'0 0.0
2014-Oct-21 00:34N 37°57' E 023°38'0 0.0
2014-Oct-20 23:34N 37°57' E 023°38'0 0.0
2014-Oct-20 22:34N 37°57' E 023°38'0 0.0
2014-Oct-20 21:33N 37°57' E 023°38'0 0.0
2014-Oct-20 20:33N 37°57' E 023°38'0 0.0
2014-Oct-20 19:33N 37°57' E 023°38'0 0.0
2014-Oct-20 18:33N 37°57' E 023°38'0 0.0
2014-Oct-20 17:33N 37°57' E 023°38'0 0.0
2014-Oct-20 16:34N 37°57' E 023°38'0 0.0
2014-Oct-20 15:33N 37°57' E 023°38'0 0.0
2014-Oct-20 14:33N 37°57' E 023°38'0 0.0
2014-Oct-20 13:34N 37°57' E 023°38'0 0.0
2014-Oct-20 12:33N 37°57' E 023°38'0 0.0
2014-Oct-20 11:33N 37°57' E 023°38'0 0.0
2014-Oct-20 10:34N 37°57' E 023°38'0 0.0
2014-Oct-20 09:33N 37°57' E 023°38'0 0.0
2014-Oct-20 08:33N 37°57' E 023°38'0 0.0
2014-Oct-20 07:34N 37°57' E 023°38'0 0.0
2014-Oct-20 06:33N 37°57' E 023°38'0 0.0
2014-Oct-20 05:34N 37°57' E 023°38'0 0.0
2014-Oct-20 04:34N 37°57' E 023°38'0 0.0
2014-Oct-20 03:34N 37°57' E 023°38'0 0.0
2014-Oct-20 02:34N 37°57' E 023°38'0 0.0
2014-Oct-20 01:34N 37°57' E 023°38'0 0.0
2014-Oct-20 00:34N 37°57' E 023°38'0 0.0
2014-Oct-19 23:34N 37°57' E 023°38'0 0.0
2014-Oct-19 22:33N 37°57' E 023°38'0 0.0
2014-Oct-19 21:34N 37°57' E 023°38'2 2.0
2014-Oct-19 20:33N 37°55' E 023°38'6019.1
2014-Oct-19 17:24N 37°32' E 024°48'1011.2
2014-Oct-19 16:32N 37°27' E 024°59'1616.9
2014-Oct-19 15:33N 37°28' E 025°19'173 9.1
2014-Oct-18 20:31N 40°19' E 024°43'2121.4
2014-Oct-18 19:33N 40°37' E 024°30'2019.6
2014-Oct-18 18:33N 40°56' E 024°24'0 0.1
2014-Oct-18 17:33N 40°56' E 024°25'0 0.0
2014-Oct-18 16:33N 40°56' E 024°25'0 0.0
2014-Oct-18 15:33N 40°56' E 024°25'1111.4
2014-Oct-18 14:33N 40°45' E 024°27'2721.2
2014-Oct-18 13:18N 40°20' E 024°41'172 9.6
2014-Oct-17 19:21N 37°34' E 025°36'1518.2
2014-Oct-17 18:33N 37°28' E 025°19'1616.2
2014-Oct-17 17:33N 37°26' E 024°59'10 9.6
2014-Oct-17 16:33N 37°32' E 024°49'3021.0
2014-Oct-17 15:08N 37°32' E 024°11'1821.2
2014-Oct-17 14:17N 37°38' E 023°50'1419.8
2014-Oct-17 13:34N 37°48' E 023°38'8 8.2
2014-Oct-17 12:33N 37°57' E 023°38'0 0.0
2014-Oct-17 11:33N 37°57' E 023°38'0 0.0
2014-Oct-17 10:33N 37°57' E 023°38'0 0.0
2014-Oct-17 09:33N 37°57' E 023°38'0 0.0
2014-Oct-17 08:33N 37°57' E 023°38'0 0.0
2014-Oct-17 07:33N 37°57' E 023°38'0 0.0
2014-Oct-17 06:33N 37°57' E 023°38'0 0.0
2014-Oct-17 05:33N 37°57' E 023°38'0 0.0
2014-Oct-17 04:33N 37°57' E 023°38'0 0.0
2014-Oct-17 03:33N 37°57' E 023°38'0 0.0
2014-Oct-17 02:33N 37°57' E 023°38'0 0.0
2014-Oct-17 01:11N 37°57' E 023°38'0 0.0
2014-Oct-17 00:33N 37°57' E 023°38'0 0.0
2014-Oct-16 23:05N 37°57' E 023°38'0 0.0
2014-Oct-16 22:33N 37°57' E 023°38'0 0.0
2014-Oct-16 21:33N 37°57' E 023°38'0 0.0
2014-Oct-16 20:33N 37°57' E 023°38'1312.8
2014-Oct-16 19:33N 37°45' E 023°44'2221.0
2014-Oct-16 18:31N 37°33' E 024°08'2021.1
2014-Oct-16 17:33N 37°31' E 024°33'1918.8
2014-Oct-16 16:32N 37°26' E 024°57'1515.1
2014-Oct-16 15:34N 37°28' E 025°15'1110.6
2014-Oct-16 14:34N 37°32' E 025°27'2120.5
2014-Oct-16 13:31N 37°37' E 025°53'1613.5
2014-Oct-16 12:22N 37°39' E 026°13'1921.3
2014-Oct-16 11:29N 37°47' E 026°34'17611.8
2014-Oct-15 20:33N 40°19' E 024°42'2221.4
2014-Oct-15 19:32N 40°39' E 024°29'1717.8
2014-Oct-15 18:34N 40°56' E 024°25'0 0.0
2014-Oct-15 17:33N 40°56' E 024°25'0 0.0
2014-Oct-15 16:33N 40°56' E 024°25'0 0.0
2014-Oct-15 15:34N 40°56' E 024°25'1817.9
2014-Oct-15 14:33N 40°38' E 024°29'5817.4
2014-Oct-15 11:13N 39°47' E 025°05'135 8.6
2014-Oct-14 19:23N 37°34' E 025°35'1417.3
2014-Oct-14 18:33N 37°28' E 025°19'1615.9
2014-Oct-14 17:33N 37°26' E 024°59'9 9.3
2014-Oct-14 16:33N 37°32' E 024°50'2221.3
2014-Oct-14 15:32N 37°31' E 024°22'2721.4
2014-Oct-14 14:16N 37°38' E 023°49'1420.1
2014-Oct-14 13:33N 37°49' E 023°37'8 7.5
2014-Oct-14 12:33N 37°57' E 023°38'0 0.0
2014-Oct-14 11:33N 37°57' E 023°38'0 0.0
2014-Oct-14 10:34N 37°57' E 023°38'0 0.0
2014-Oct-14 09:34N 37°57' E 023°38'0 0.0
2014-Oct-14 08:33N 37°57' E 023°38'0 0.0
2014-Oct-14 07:33N 37°57' E 023°38'0 0.0
2014-Oct-14 06:25N 37°57' E 023°38'0 0.0
2014-Oct-14 05:33N 37°57' E 023°38'0 0.0
2014-Oct-14 04:33N 37°57' E 023°38'0 0.0
2014-Oct-14 03:33N 37°57' E 023°38'0 0.0
2014-Oct-14 02:33N 37°57' E 023°38'0 0.0
2014-Oct-14 01:22N 37°57' E 023°38'0 0.0
2014-Oct-14 00:24N 37°57' E 023°38'0 0.0
2014-Oct-13 23:33N 37°57' E 023°38'0 0.0
2014-Oct-13 22:31N 37°57' E 023°38'0 0.0
2014-Oct-13 21:33N 37°57' E 023°38'0 0.0
2014-Oct-13 20:33N 37°57' E 023°38'0 0.0
2014-Oct-13 19:33N 37°57' E 023°38'0 0.0
2014-Oct-13 18:33N 37°57' E 023°38'0 0.0
2014-Oct-13 17:33N 37°57' E 023°38'0 0.0
2014-Oct-13 16:33N 37°57' E 023°38'0 0.0
2014-Oct-13 15:33N 37°57' E 023°38'0 0.0
2014-Oct-13 14:33N 37°57' E 023°38'0 0.0
2014-Oct-13 13:33N 37°57' E 023°38'0 0.0
2014-Oct-13 12:34N 37°57' E 023°38'0 0.0
2014-Oct-13 11:31N 37°57' E 023°38'0 0.0
2014-Oct-13 10:33N 37°57' E 023°38'0 0.0
2014-Oct-13 09:33N 37°57' E 023°38'0 0.0
2014-Oct-13 08:33N 37°57' E 023°38'0 0.0
2014-Oct-13 07:33N 37°57' E 023°38'0 0.0
2014-Oct-13 06:34N 37°57' E 023°38'0 0.0
2014-Oct-13 05:33N 37°57' E 023°38'0 0.0
2014-Oct-13 04:33N 37°57' E 023°38'0 0.0
2014-Oct-13 03:33N 37°57' E 023°38'0 0.0
2014-Oct-13 02:33N 37°57' E 023°38'0 0.0
2014-Oct-13 01:33N 37°57' E 023°38'0 0.0
2014-Oct-13 00:33N 37°57' E 023°38'0 0.0
2014-Oct-12 23:33N 37°57' E 023°38'0 0.0
2014-Oct-12 22:33N 37°57' E 023°38'0 0.0
2014-Oct-12 21:33N 37°57' E 023°38'0 0.0
2014-Oct-12 20:33N 37°57' E 023°38'  

Dump ship's entire track history